Location: Izdebno
(52.6670°N, 16.2170°E)
Time: 02:58:04
(UTC+02:00)

Transit 2A - Pass Details

Date: 28 February 2024
Orbit: 596 x 956 km, 66.7° (Epoch: 21 April)

Event Time Altitude Azimuth Distance (km) Brightness Sun altitude
Rises 02:34:34 0° 321° (NW) 2,954 - -36.5°
Reaches altitude 10° 02:36:48 10° 325° (NW) 2,082 - -36.3°
Maximum altitude 02:41:28 61° 46° (NE) 798 - -35.7°
Drops below altitude 10° 02:46:36 10° 127° (SE) 2,286 - -35.1°
Exits shadow 02:48:32 - 130° (SE) 3,035 9.2 -34.9°
Sets 02:49:08 0° 131° (SE) 3,271 9.4 -34.8°
